Rifle, CO

4:44 AM MDT on June 25, 2017 (GMT -0600)
Garfield County Regional

Weather History for KRIL - February, 2013

Change the Weather History Date:

Monday, February 4, 2013

  Actual Average Record
Temperature  
Mean Temperature 25 °F 28 °F  
Max Temperature 38 °F 39 °F 64 °F (1934)
Min Temperature 11 °F 16 °F -12 °F (1933)
Degree Days  
Heating Degree Days 40 38  
Month to date heating degree days 155 152  
Since 1 July heating degree days 4153 4187  
Cooling Degree Days 0 0  
Month to date cooling degree days 0 0  
Year to date cooling degree days 0 0  
Moisture  
Dew Point 16 °F    
Average Humidity 68    
Maximum Humidity 88    
Minimum Humidity 47    
Precipitation  
Precipitation 0.00 in 0.02 in 0.73 in (1989)
Month to date precipitation 0.00 0.08  
Year to date precipitation 0.70 0.89  
Sea Level Pressure  
Sea Level Pressure 30.28 in    
Wind  
Wind Speed 4 mph (SSW)    
Max Wind Speed 14 mph    
Max Gust Speed 16 mph    
Visibility 10 miles    
Events      
T = Trace of Precipitation, MM = Missing Value Source: NWS Daily Summary

Daily Weather History Graph

Daily Weather History Graph

Search for Another Location

Airport or City:

Trip Planner

Search our weather history database for the weather conditions in past years. The results will help you decide how hot, cold, wet, or windy it might be!

Date:

Astronomy

Feb. 04, 2013 Rise Set
Actual Time 7:15 AM MST 5:35 PM MST
Civil Twilight 6:47 AM MST 6:03 PM MST
Nautical Twilight 6:15 AM MST 6:35 PM MST
Astronomical Twilight 5:43 AM MST 7:06 PM MST
Moon 1:54 AM MST (2/4) 12:01 PM MST (2/4)
Length of Visible Light 11h 16m
Length of Day
10h 19m
Last Quarter, 36% of the Moon is Illuminated
Feb 4
Last Quarter
Feb 10
New
Feb 17
First Quarter
Feb 25
Full
Mar 4
Last Quarter

Hourly Weather History & Observations

Time (MST) Temp. Windchill Dew Point Humidity Pressure Visibility Wind Dir Wind Speed Gust Speed Precip Events Conditions
12:53 AM 16.0 °F 10.4 °F 10.9 °F 81% 30.29 in 10.0 mi Variable 3.5 mph - N/A   Partly Cloudy
1:53 AM 17.1 °F 7.6 °F 12.0 °F 81% 30.28 in 10.0 mi WSW 6.9 mph - N/A   Clear
3:53 AM 14.0 °F 3.9 °F 9.0 °F 80% 30.28 in 10.0 mi WSW 6.9 mph - N/A   Clear
4:53 AM 12.9 °F 3.8 °F 9.0 °F 84% 30.30 in 10.0 mi Variable 5.8 mph - N/A   Clear
5:53 AM 12.9 °F 3.8 °F 9.0 °F 84% 30.32 in 10.0 mi Variable 5.8 mph - N/A   Clear
6:53 AM 12.9 °F 6.9 °F 9.0 °F 84% 30.35 in 10.0 mi Variable 3.5 mph - N/A   Scattered Clouds
7:53 AM 14.0 °F 3.9 °F 10.0 °F 84% 30.36 in 10.0 mi SSW 6.9 mph - N/A   Clear
8:53 AM 17.1 °F 10.0 °F 12.0 °F 81% 30.36 in 10.0 mi SSW 4.6 mph - N/A   Clear
9:53 AM 21.9 °F - 15.1 °F 75% 30.35 in 10.0 mi Calm Calm - N/A   Clear
10:53 AM 25.0 °F - 16.0 °F 69% 30.33 in 10.0 mi Calm Calm - N/A   Clear
11:53 AM 28.9 °F - 16.0 °F 58% 30.29 in 10.0 mi Calm Calm - N/A   Clear
12:53 PM 35.1 °F 32.2 °F 18.0 °F 50% 30.24 in 10.0 mi Variable 3.5 mph - N/A   Clear
1:53 PM 35.1 °F - 19.0 °F 52% 30.21 in 10.0 mi Calm Calm - N/A   Clear
2:53 PM 36.0 °F - 19.9 °F 52% 30.22 in 10.0 mi Calm Calm - N/A   Partly Cloudy
3:53 PM 37.9 °F - 21.0 °F 51% 30.20 in 10.0 mi Calm Calm - N/A   Clear
4:53 PM 37.0 °F 34.5 °F 21.9 °F 54% 30.21 in 10.0 mi SSE 3.5 mph - N/A   Clear
5:53 PM 30.9 °F 25.2 °F 21.0 °F 67% 30.25 in 10.0 mi South 5.8 mph - N/A   Mostly Cloudy
6:53 PM 30.9 °F 22.8 °F 21.9 °F 69% 30.27 in 10.0 mi SSW 9.2 mph - N/A   Overcast
7:53 PM 28.9 °F 22.8 °F 19.9 °F 69% 30.27 in 10.0 mi Variable 5.8 mph - N/A   Clear
8:53 PM 25.0 °F 19.3 °F 19.0 °F 78% 30.28 in 10.0 mi Variable 4.6 mph - N/A   Clear
9:53 PM 24.1 °F 16.0 °F 17.1 °F 75% 30.28 in 10.0 mi SW 6.9 mph - N/A   Clear
10:53 PM 21.0 °F 13.4 °F 15.1 °F 78% 30.28 in 10.0 mi SSE 5.8 mph - N/A   Clear
11:53 PM 19.9 °F 14.9 °F 15.1 °F 81% 30.28 in 10.0 mi South 3.5 mph - N/A   Clear